SCP
1 1 0 0 0 0 0 0 0 0 0 0 0 0 0 0 0 0 0 0 0 0 0 0 0 0 0 0 0 0 0 0 0 0 0 0 0 0
1 1 1 0 0 0 0 0 0 0 0 0 0 0 0 0 0 0 0 0 0 0 0 0 0 0 0 0 0 0 0 0 0 0 0 0 0 0
1 1 0 1 0 0 0 0 0 0 0 0 0 0 0 0 0 0 0 0 0 0 0 0 0 0 0 0 0 0 0 0 0 0 0 0 0 0
0 0 1 1 1 1 1 1 1 1 1 0 0 0 1 1 1 0 0 0 0 0 0 0 0 0 0 0 0 0 0 0 0 0 0 0 0 0
1 1 1 1 1 1 1 1 1 1 1 1 0 1 1 1 1 1 0 0 0 0 0 0 0 0 0 0 0 0 0 0 0 0 0 0 0 0
1 1 1 1 1 1 1 1 1 1 1 1 1 1 1 1 1 1 0 0 0 0 0 0 0 0 0 0 0 0 0 0 0 0 0 0 0 0
1 1 1 1 1 1 1 1 1 1 1 1 1 1 1 1 1 1 0 0 0 0 0 0 0 0 0 0 0 0 0 0 0 0 0 0 0 0
1 1 1 1 1 1 1 1 1 1 1 1 1 1 1 1 1 1 0 0 0 0 0 0 0 0 0 0 0 0 0 0 0 0 0 0 0 0
1 1 1 1 1 1 1 1 1 1 1 1 1 1 1 1 1 1 1 0 0 0 0 0 0 0 0 0 0 0 0 0 0 0 0 0 0 0
1 1 1 1 1 1 1 1 1 1 0 0 0 0 0 0 1 1 1 0 0 0 0 0 0 0 0 0 0 0 0 0 0 0 0 0 0 0
1 1 1 1 1 1 1 1 1 1 0 0 0 0 0 0 0 0 0 0 0 0 0 0 0 0 0 0 0 0 0 0 0 0 0 0 0 0
1 1 1 1 0 0 1 1 1 1 0 0 0 0 0 0 0 0 0 0 0 0 0 0 0 0 0 0 0 0 0 0 0 0 0 0 0 0
1 1 1 0 0 0 0 0 1 0 0 0 0 0 0 0 0 0 0 0 0 0 0 0 0 0 0 0 0 0 0 0 0 0 0 0 0 0
1 1 0 0 0 0 0 0 0 0 0 0 0 0 0 0 0 0 0 0 0 0 0 0 0 0 0 0 0 0 0 0 0 0 0 0 0 0
0 0 0 0 0 0 0 0 0 0 0 0 0 0 0 0 0 0 0 0 0 0 0 0 0 0 0 0 0 0 0 0 0 0 0 0 0 0
0 0 0 0 0 0 0 0 0 0 0 0 0 0 0 0 0 0 0 0 0 0 0 0 0 0 0 0 0 0 0 0 0 0 0 0 0 0
0 0 0 0 0 0 0 0 0 0 0 0 0 0 0 0 0 0 0 0 0 0 0 0 0 0 0 0 0 0 0 0 0 0 0 0 0 0
0 0 0 0 0 0 0 0 0 0 0 0 0 0 0 0 0 0 0 0 0 0 0 0 0 0 0 0 0 0 0 0 0 0 0 0 0 0
0 0 0 0 0 0 0 0 0 0 0 0 0 0 0 0 0 0 0 0 0 0 0 0 0 0 0 0 0 0 0 0 0 0 0 0 0 0
0 0 0 0 0 0 0 0 0 0 0 1 1 1 0 0 0 0 0 0 0 0 0 0 0 0 0 0 0 0 0 0 0 0 0 0 0 0
0 0 0 0 0 0 0 0 0 0 0 0 1 1 1 0 0 0 0 0 0 0 0 0 0 0 0 0 0 0 0 0 0 0 0 0 0 0
0 0 0 0 0 0 0 0 0 0 0 0 0 0 1 1 0 0 0 0 0 0 0 0 0 0 0 0 0 0 0 0 0 0 0 0 0 0
0 0 0 0 0 0 0 0 0 0 0 0 0 0 0 0 1 0 0 0 0 0 0 0 0 0 0 0 0 0 0 0 0 0 0 0 0 0
Wind_Speed
4 4 4 3 3 3 2 3 3 2 2 3 2 4 4 4 6 4 4 7 8 7 6 5 4 4 4 4 3 3 2 2 2 2 2 2 2 2
3 3 4 3 3 3 3 2 2 2 2 2 2 3 4 4 7 4 4 8 8 8 7 6 6 5 4 4 4 3 3 2 2 2 2 1 1 2
4 4 4 4 3 3 2 2 2 2 2 2 1 2 3 3 4 4 4 5 5 9 9 8 7 6 5 5 4 4 3 3 3 2 2 2 2 1
4 4 4 4 4 3 3 3 2 2 2 3 2 2 3 4 4 5 4 5 4 8 10 9 8 7 6 5 5 4 4 3 3 3 2 2 2 2
4 4 4 4 4 3 4 3 2 3 3 3 3 2 3 3 3 4 3 2 3 6 9 8 8 8 7 6 5 5 4 4 3 3 2 2 2 2
4 4 4 4 4 4 4 3 3 3 3 3 3 3 3 3 3 3 2 2 3 3 4 6 7 8 7 6 6 6 5 5 4 4 3 3 3 2
4 3 3 3 3 2 3 2 2 3 3 3 4 3 3 3 3 3 3 2 2 3 3 4 4 4 4 6 7 7 7 6 6 5 5 4 4 3
4 3 3 4 3 3 3 2 2 3 3 3 3 3 3 3 2 3 2 2 3 3 3 4 5 5 4 4 6 9 9 8 7 7 6 6 5 5
4 3 4 3 3 3 3 4 3 4 5 4 4 4 3 2 3 3 3 3 3 3 3 3 3 4 4 5 9 10 10 9 8 8 7 7 6 6
4 3 3 2 2 2 2 3 3 3 4 4 3 3 2 1 2 3 4 4 3 2 3 3 3 3 3 3 9 10 10 9 9 8 8 8 8 7
5 4 4 3 3 3 3 3 4 3 2 2 3 3 2 3 3 2 3 3 3 3 3 3 2 2 2 3 6 10 10 9 9 8 8 7 7 6
4 3 4 4 4 4 4 5 5 5 3 3 3 4 5 5 6 5 4 3 2 2 3 3 2 2 2 3 4 5 5 7 9 8 8 7 6 4
3 2 2 3 4 5 5 4 5 4 3 4 4 4 4 4 4 5 4 4 3 2 2 3 2 2 2 2 3 4 5 5 5 5 7 8 8 6
3 2 1 3 4 5 4 5 5 5 4 4 3 3 3 4 3 4 4 4 4 3 2 2 2 3 3 2 2 3 4 4 5 4 4 6 7 8
2 1 2 3 3 4 6 6 5 4 3 3 3 3 3 3 2 3 3 3 4 4 4 3 3 3 3 3 2 3 3 4 4 4 4 5 5 5
2 1 1 2 3 4 3 4 4 3 3 3 3 3 2 2 2 2 3 3 3 3 3 3 3 3 3 2 2 2 3 3 4 4 4 4 4 4
1 2 2 2 2 3 3 3 3 3 3 3 3 2 2 2 2 2 3 3 3 3 3 2 2 2 2 2 2 2 2 2 3 4 4 4 4 4
1 2 3 3 3 3 3 3 3 2 2 2 2 2 2 2 2 2 2 2 3 3 3 3 3 2 2 2 3 3 2 2 2 3 3 4 4 4
2 3 3 3 3 3 3 3 2 2 2 2 2 2 2 2 2 2 1 2 2 2 2 2 3 3 4 4 3 5 4 3 2 3 4 3 4 4
2 3 3 2 2 2 2 1 1 1 1 2 2 2 2 2 2 2 2 2 3 2 2 1 2 3 4 4 2 3 6 4 3 3 3 3 2 2
3 3 2 1 1 1 0 0 0 0 1 1 1 2 2 2 2 2 2 3 3 3 3 3 4 5 3 2 2 2 3 5 5 4 4 3 3 3
2 2 1 1 0 0 0 1 0 0 1 1 1 1 2 2 3 3 3 3 3 3 3 2 3 3 3 3 4 4 3 3 5 7 6 5 3 4
1 1 1 1 1 1 1 1 1 1 1 1 1 1 1 2 3 3 3 3 2 3 3 2 2 2 3 4 4 3 4 4 4 4 5 7 8 6
Wind_Direction
235 237 238 238 228 230 224 206 201 219 228 203 181 169 161 143 155 172 162 173 177 178 182 184 182 181 180 178 176 172 167 175 191 203 215 224 223 236
241 249 244 246 231 225 233 233 213 206 233 205 191 167 160 162 164 177 173 169 178 179 183 184 182 180 177 172 169 167 163 168 179 183 182 185 198 222
253 249 245 252 251 242 237 230 224 209 222 230 190 156 160 168 163 186 179 178 179 187 187 184 182 179 175 174 176 174 173 175 181 178 172 171 182 213
251 254 250 243 238 247 244 235 227 215 207 226 220 191 195 188 181 197 203 191 179 186 188 183 181 179 178 180 181 181 182 183 184 180 181 186 191 192
246 248 248 243 240 241 240 238 230 226 204 215 227 211 204 196 189 209 208 191 196 176 180 182 181 180 179 178 180 179 183 185 184 183 184 182 183 189
251 248 248 244 240 238 237 231 234 235 222 221 230 220 198 191 189 202 200 204 212 188 172 174 181 182 182 182 184 184 188 190 187 182 179 177 178 176
249 240 234 231 234 236 243 238 233 234 233 229 228 223 207 190 203 203 205 201 213 193 174 180 176 184 191 195 198 194 189 187 184 184 186 186 184 183
246 236 229 218 206 200 202 215 226 233 242 245 241 225 214 203 200 208 203 206 222 194 195 207 184 189 192 192 193 190 189 189 190 192 192 193 194 194
248 242 247 236 204 197 198 205 219 232 234 245 253 249 235 213 204 218 222 223 229 203 194 220 194 196 193 189 182 186 192 196 198 198 199 199 202 205
246 244 244 246 235 209 218 232 231 236 237 232 241 263 264 241 214 221 226 230 239 210 179 213 201 204 186 177 184 186 191 197 199 201 203 204 206 210
246 242 228 219 204 203 217 236 241 239 237 204 202 214 224 230 221 224 229 224 228 213 197 210 195 193 190 192 189 188 188 192 198 203 206 208 209 207
251 243 227 202 188 201 224 229 238 238 225 223 226 229 229 226 220 217 226 228 236 214 190 195 198 183 205 194 181 184 192 199 203 207 209 211 208 203
255 241 212 179 199 219 229 237 237 242 233 229 227 224 223 218 213 212 213 216 224 227 194 186 203 197 201 194 186 187 190 189 194 207 213 211 205 201
258 245 203 191 213 225 227 238 249 246 243 238 235 227 220 220 215 212 211 212 216 218 209 188 200 196 208 217 204 184 191 188 184 194 196 199 207 218
283 283 218 206 221 229 231 236 240 235 235 239 238 238 230 220 211 208 211 217 229 226 205 200 206 204 204 218 212 188 192 196 189 187 188 192 199 202
271 295 240 237 258 256 234 230 228 228 224 237 245 238 221 203 209 210 211 208 225 234 212 195 203 208 213 222 209 198 192 189 186 188 193 199 197 195
284 242 222 222 234 241 234 223 218 216 226 237 245 250 237 213 214 222 223 218 216 213 201 195 201 198 203 204 225 218 198 200 185 181 191 201 202 198
226 248 231 226 231 231 232 231 223 219 223 231 235 237 241 235 233 226 222 223 229 218 203 191 195 203 217 245 227 226 222 213 194 185 195 207 213 203
217 242 239 233 235 235 231 233 224 216 220 237 237 243 248 244 232 218 210 235 244 235 215 200 195 205 223 233 234 215 216 214 203 204 207 207 214 209
246 249 245 236 232 237 243 237 226 211 203 215 226 236 243 255 256 241 218 227 239 237 229 214 201 209 220 230 229 219 209 207 203 212 216 211 214 202
250 255 262 263 256 221 221 244 220 222 221 230 224 233 235 238 248 244 231 237 238 236 226 218 223 218 218 207 220 222 205 205 202 202 210 210 216 216
250 253 258 279 282 163 181 187 189 239 260 257 250 242 236 237 241 246 244 236 233 242 247 233 210 206 209 216 226 223 213 205 217 228 232 218 203 213
253 256 255 247 212 202 204 211 219 231 251 282 290 284 268 256 251 242 240 247 247 249 244 229 211 214 221 221 228 228 221 215 209 209 234 234 228 226